www.pogodaiklimat.ru

Погода и климат >> Архив погоды >> Россия >> Новгородская область >> Валдай


ПОГОДА в Валдае

  • Прогноз погоды в Валдае
  • Монитор погоды в Валдае
  • Климат города

АРХИВ ПОГОДЫ в Валдае

Время (UTC), дата Ветер
(напр.,м/с)
 
Видим.   Явления Облачность Т
(С)
Тd
(С)
f
(%)
Тe
(С)
Тes
(С)
Комфортность P
(гПа)
Po
(гПа)
Тmin
(С)
Tmax
(С)
R
(мм)
R24
(мм)
S
(см)
15 15.02 В 1 20 км 9/8 600 м
[Sc Ac As]
-8.1 -10.0 86 -10 -10 1033.0 1006.7
18 15.02 В 2 10 км слабый снег 10/9 600 м
[Sc Ac As]
-7.9 -9.7 87 -12 -12 1032.3 1006.0 -6.4
21 15.02 В 1 4000 м слабый снег 10/6 600 м
[Sc As op]
-8.0 -9.3 90 -10 -10 1031.5 1005.2
00 16.02 ЮВ 1 4000 м слабый снег 10/8 600 м
[Sc As op]
-7.9 -8.9 93 -10 -10 1030.9 1004.6
03 16.02 ЮВ 1 4000 м слабый снег 10/8 300 м
[Frnb As op]
-7.6 -8.5 93 -10 -10 1029.8 1003.6 -8.2 2
06 16.02 ЮВ 2 4400 м снег 10/8 300 м
[Frnb As op]
-7.0 -8.2 91 -11 -11 1029.2 1003.1 -8.0 2 37
09 16.02 ЮВ 2 н/о слабый снег 10/0
[Ac As]
-5.0 -7.1 85 -9 -8 1028.7 1002.8
12 16.02 ЮВ 2 н/о н/о -4.2 -6.4 85 -8 -8 1028.0 1002.2
15 16.02 В 1 6000 м слабый снег 9/0
[As trans Cs]
-5.5 -6.5 93 -8 -8 1027.2 1001.2 1
18 16.02 В 1 4000 м слабый снег 10/8 300 м
[Frnb As op]
-5.6 -6.0 97 -8 -8 1026.3 1000.3 -3.8 0.4
21 16.02 В 1 4000 м слабый снег 10/8 300 м
[Frnb As op]
-4.9 -5.7 94 -7 -7 1025.7 999.8
00 17.02 В 1 4000 м слабый снег 10/8 300 м
[Frnb As op]
-5.6 -6.4 94 -8 -8 1025.1 999.2
03 17.02 В 1 4000 м слабый снег 9/8 600 м
[Sc As trans]
-6.3 -7.1 94 -9 -9 1023.8 997.9 -6.7 0.7
06 17.02 В 1 8000 м слабый снег 9/0
[Ac As]
-6.9 -7.6 95 -9 -9 1023.3 997.3 -7.2 0.7 37
09 17.02 В 1 9000 м слабый снег 9/0
[Ac As Ci fib]
-3.6 -5.9 84 -6 -5 1022.0 996.4
12 17.02 В 1 8000 м слабый снег 10/10 330 м
[Frnb Ns]
-2.1 -4.1 86 -4 -4 1021.1 995.6
15 17.02 В 1 7000 м снег 10/8 300 м
[Frnb As op]
-2.9 -3.8 93 -5 -5 1020.5 995.0 0.4
18 17.02 ЮВ 1 4000 м слабый снег 10/10 330 м
[Frnb Ns]
-3.4 -4.2 94 -6 -6 1020.5 994.9 -1.9 1
21 17.02 В 1 4000 м слабый снег 10/8 300 м
[Frnb As op]
-4.8 -5.3 96 -7 -7 1020.3 994.6
00 18.02 штиль 0 4000 м слабый снег 10/8 300 м
[Frnb As op]
-5.3 -6.0 95 -6 -6 1020.0 994.3
03 18.02 штиль 0 4000 м слабый снег 9/0
[Ac As]
-7.5 -7.9 97 -8 -8 1019.9 993.9 -7.5 1
06 18.02 В 1 8000 м слабый снег 9/0
[Ac As]
-7.0 -7.6 95 -10 -9 1019.7 993.8 -7.5 0.6 38
09 18.02 СВ 1 6000 м снег 10/0
[As op]
-5.1 -6.6 89 -8 -7 1019.1 993.4
12 18.02 СВ 1 5000 м снег 10/0
[As op]
-3.8 -5.4 89 -6 -6 1018.5 992.9
15 18.02 штиль 0 6000 м снег 10/0
[As op]
-4.9 -5.8 93 -6 -6 1018.5 992.8 2
18 18.02 З 1 4000 м снег 10/0
[As op]
-5.2 -5.7 96 -8 -8 1018.4 992.7 -3.4 3
21 18.02 штиль 0 4000 м слабый снег 10/10 300 м
[Frnb Ns]
-5.9 -6.4 96 -7 -7 1018.1 992.3
00 19.02 СЗ 1 4000 м слабый снег 10/10 180 м
[Frnb Ns]
-7.1 -7.7 95 -10 -10 1018.0 992.1
03 19.02 штиль 0 4000 м слабый снег 9/0
[As trans]
-10.9 -11.7 94 -11 -11 1018.4 992.1 -10.9 1
06 19.02 штиль 0 7000 м слабый снег 9/4 600 м
[Sc As trans]
-10.9 -11.9 92 -11 -11 1018.9 992.6 -12.1 0.6 42
09 19.02 С 1 9000 м слабый снег 9/0
[Ac As]
-5.1 -7.8 81 -7 -6 1018.8 993.1
12 19.02 СЗ 1 8000 м слабый снег 9/5 600 м
[Sc Ac As]
-5.1 -7.3 85 -7 -7 1019.3 993.6
15 19.02 З 1 9000 м слабый снег 9/0
[Ac As Ci fib]
-6.2 -7.6 90 -9 -9 1020.3 994.5 0.6
18 19.02 З 1 4000 м слабый снег 9/0
[As trans Cs]
-6.9 -7.8 93 -9 -9 1020.7 994.8 -4.6 1
21 19.02 З 1 4000 м слабый снег 10/0
[]
-7.7 -8.4 95 -10 -10 1020.7 994.7
00 20.02 З 1 4000 м слабый снег 10/8 300 м
[Frnb As op]
-7.8 -8.6 94 -10 -10 1021.0 994.9
03 20.02 З 1 4000 м слабый снег 10/6 300 м
[Frnb As op]
-8.3 -9.2 93 -11 -11 1021.0 994.9 -8.3 1
06 20.02 З 1 8000 м слабый снег 9/0
[Ac As]
-9.3 -10.5 91 -12 -11 1021.6 995.4 -9.3 1 42
09 20.02 З 1 9000 м слабый ливневой снег 9/8 600 м
[Cb cap Ci fib]
-7.8 -10.1 84 -10 -10 1022.4 996.3
12 20.02 З 2 4000 м слабый ливневой снег 8/8 600 м
[Cb cap]
-7.4 -11.1 75 -12 -11 1022.5 996.5
15 20.02 З 1 8000 м слабый снег {ливн. осадки} 9/4 600 м
[Sc As trans Cs]
-8.8 -11.0 84 -11 -11 1023.2 997.0 0.7
18 20.02 З 1 20 км {ливн. осадки, снег} ясно -12.5 -13.6 91 -15 -15 1024.4 997.8 -6.5 0.5
21 20.02 З 1 20 км 5/5 600 м
[Sc]
-14.7 -15.8 91 -17 -17 1024.9 998.1
00 21.02 штиль 0 20 км ясно -18.9 -20.2 89 -19 -19 1026.1 998.8
03 21.02 штиль 0 20 км ясно -21.8 -23.5 86 -22 -22 1026.9 999.3 -21.9
06 21.02 штиль 0 20 км н/о -21.9 -23.8 85 -22 -22 1027.1 999.5 -24.0 42
09 21.02 З 1 20 км 9/5 600 м
[Sc Ac und Ci fib]
-12.7 -14.8 84 -15 -14 1027.0 1000.3
12 21.02 СЗ 2 20 км в посл. час ливневой снег 9/8 600 м
[Cb cap Ac trans]
-9.6 -14.7 66 -14 -14 1026.9 1000.5
15 21.02 ЮЗ 1 н/о слабый ливневой снег 9/9 600 м
[Cb cap]
-10.3 -13.4 78 -13 -13 1026.9 1000.5
18 21.02 штиль 0 20 км {ливн. осадки} ясно -17.0 -18.2 90 -17 -17 1028.5 1001.4 -8.3
21 21.02 штиль 0 4000 м слабый снег 9/0
[Ac As]
-19.3 -20.6 89 -19 -19 1029.6 1002.2
00 22.02 штиль 0 20 км слабый снег 10/0
[Ac As]
-18.1 -19.7 87 -18 -18 1030.2 1002.9
03 22.02 штиль 0 20 км {снег} 4/0
[As trans]
-22.4 -24.2 85 -22 -22 1031.0 1003.2 -22.4
06 22.02 штиль 0 9000 м слабый снег 6/0
[As trans]
-23.1 -25.0 84 -23 -23 1031.5 1003.7 -23.8 42
09 22.02 З 1 20 км 3/0
[Ci fib]
-12.0 -14.6 81 -14 -11 1030.8 1004.1

 

Местоположение метеостанции Валдай (Новгородская область, Россия): широта 57.99 долгота 33.25 высота над уровнем моря 195 м.

В архиве по умолчанию представлена погода в Валдае за последнюю неделю. Архивные данные за месяц целиком и за предыдущие месяцы, начиная с января 2011 года, Вы можете получить, выбрав интересующий диапазон дат из раскрывающегося списка и нажав кнопку "Ввод!".

Внимание! Время в таблицах - всемирное. Для получения местного времени необходимо прибавить поправку, которая в Валдае равна 3 ч.

Смотрите также архив погоды в соседних городах и на ближайших метеорологических станциях:

Погода в Бологом (Тверская область, Россия) (48 км)
Погода в Крестцах (Новгородская область, Россия) (53 км)
Погода в Демянске (Новгородская область, Россия) (60 км)
Погода в Боровичах (Новгородская область, Россия) (61 км)
Погода в Вышнем Волочке (Тверская область, Россия) (93 км)
Погода в Осташкове (Тверская область, Россия) (98 км)
Погода в Удомле (Тверская область, Россия) (105 км)
Погода в Охонах (Новгородская область, Россия) (110 км)
Погода в Старой Руссе (Новгородская область, Россия) (114 км)
Погода в Великом Новгороде (Новгородская область, Россия) (131 км)

Пояснения к столбцам:

Ветер - указаны скорость ветра в м/с - средняя за 10 мин, порывы в срок и между сроками (в фигурных скобках) и направление, откуда дует ветер: С - северный, СВ - северо-восточный, В - восточный, ЮВ - юго-восточный, Ю - южный, ЮЗ - юго-западный, З - западный, СЗ - северо-западный.
Видимость - горизонтальная дальность видимости в метрах или километрах. При видимости от 1 до 10 км при отсутствии осадков обычно наблюдается дымка, при ухудшении видимости до 1 км и менее - туман. В сухую погоду видимость может ухудшаться дымом, пылью или мглою.
Явления - указаны атмосферные явления, наблюдавшиеся в срок или в последний час перед сроком; фигурными скобками обозначены явления, наблюдавшиеся между сроками (за 1-3 часа до срока); квадратными скобками обозначены град или гололедные отложения с указанием их диаметра в мм.
Облачность - указаны через наклонную черту общая и нижняя облачность в баллах и высота нижней границы облаков в метрах; квадратными скобками обозначены формы облаков: Ci - перистые, Cs - перисто-слоистые, Cc - перисто-кучевые, Ac - высококучевые, As - высокослоистые, Sc - слоисто-кучевые, Ns - слоисто-дождевые, Cu - кучевые, Cb - кучево-дождевые. Подробнее классификацию облаков см. в Атласе облаков (PDF).
T - Температура воздуха - температура, измеренная на высоте 2 м над землей.
Td - Температура точки росы - температура, при понижении до которой содержащийся в воздухе водяной пар достигнет насыщения.
f - Относительная влажность воздуха - влажноcть воздуха, измеренная на высоте 2 м над землей.
Te - Эффективная температура - температура, которую ощущает одетый по сезону человек в тени. Характеристика душности погоды. При расчете учитывается влияние влажности воздуха и скорости ветра на теплоощущения человека.
Tes - Эффективная температура на солнце - температура, которую ощущает человек, с поправкой на солнечный нагрев. Характеристика знойности погоды. Зависит от высоты солнца над горизонтом, облачности и скорости ветра. Ночью, в пасмурную погоду, а также при ветре 12 м/с и более поправка равна нулю.
P - Атмосферное давление - приведенное к уровню моря атмосферное давление.
Po - Атмосферное давление - измеренное на уровне метеостанции атмосферное давление.
Tmin - Минимальная температура - минимум температуры воздуха на высоте 2 м над землей.
Tmax - Максимальная температура - максимум температуры воздуха на высоте 2 м над землей.
R - Количество осадков - Количество выпавших осадков за период времени, мм. При наведении курсора мыши на число - период времени, за который выпало указанное количество осадков.
R24 - Количество осадков - Количество выпавших осадков за 24 часа, мм.
S - Снежный покров - Высота снежного покрова, см. При наведении курсора мыши на число - состояние снежного покрова и степень покрытия местности в баллах.